This is the latest recevied weather packets stored in our database for station/object N3AVN. If no packets are shown the sender has not sent any weather packets the latest 10 day(s).
| Time | Temp. | Humidity | Pressure | Rain* | Wind** | Luminosity | Snow |
|---|---|---|---|---|---|---|---|
| 1777831013 | 12.22° C | 39% | 1007.4 hPa | 0 mm | - | 261 W/m² | - |
| 1777830711 | 12.22° C | 38% | 1007.5 hPa | 0 mm | - | 276 W/m² | - |
| 1777830406 | 12.78° C | 37% | 1007.3 hPa | 0 mm | - | 231 W/m² | - |
| 1777830104 | 13.89° C | 40% | 1007.5 hPa | 0 mm | - | 705 W/m² | - |
| 1777829799 | 12.78° C | 42% | 1007.7 hPa | 0 mm | - | 793 W/m² | - |
| 1777829495 | 11.67° C | 38% | 1007.9 hPa | 0 mm | - | 340 W/m² | - |
| 1777829192 | 12.22° C | 42% | 1007.8 hPa | 0 mm | - | 246 W/m² | - |
| 1777828889 | 11.67° C | 42% | 1007.9 hPa | 0 mm | - | 236 W/m² | - |
| 1777828585 | 11.11° C | 41% | 1007.9 hPa | 0 mm | - | 221 W/m² | - |
| 1777828283 | 11.11° C | 42% | 1007.7 hPa | 0 mm | - | 206 W/m² | - |
| 1777827980 | 11.67° C | 40% | 1007.5 hPa | 0 mm | - | 204 W/m² | - |
| 1777827676 | 12.78° C | 39% | 1007.6 hPa | 0 mm | - | 245 W/m² | - |
| 1777827374 | 12.22° C | 40% | 1007.8 hPa | 0 mm | - | 915 W/m² | - |
| 1777827070 | 13.33° C | 41% | 1007.6 hPa | 0 mm | - | 481 W/m² | - |
| 1777826767 | 12.78° C | 43% | 1007.6 hPa | 0 mm | - | 831 W/m² | - |
| 1777826464 | 13.33° C | 42% | 1007.5 hPa | 0 mm | - | 795 W/m² | - |
| 1777826160 | 12.78° C | 41% | 1007.4 hPa | 0 mm | - | 639 W/m² | - |
| 1777825858 | 12.78° C | 43% | 1007.5 hPa | 0 mm | - | 721 W/m² | - |
| 1777825550 | 12.22° C | 41% | 1007.5 hPa | 0 mm | - | 730 W/m² | - |
| 1777825248 | 12.78° C | 43% | 1007.7 hPa | 0 mm | - | 705 W/m² | - |
| 1777824944 | 11.67° C | 44% | 1007.6 hPa | 0 mm | - | 543 W/m² | - |
| 1777824640 | 12.78° C | 43% | 1007.6 hPa | 0 mm | - | 700 W/m² | - |
| 1777824338 | 12.22° C | 46% | 1007.5 hPa | 0 mm | - | 732 W/m² | - |
| 1777824033 | 11.11° C | 45% | 1007.6 hPa | 0 mm | - | 528 W/m² | - |
| 1777823730 | 11.11° C | 45% | 1007.4 hPa | 0 mm | - | 201 W/m² | - |
* Rain latest hour (hover to see other rain measurements)
** Current wind speed in m/s (hover to see current wind gust speed)